Home > Weather > Clarksville > Past weeks

Flag for U.S.A. Weather for the Past 2 Weeks in Clarksville, Tennessee, U.S.A.

Now
27 °F

Sunny.


Feels Like: 23 °F
Forecast: 29 / 51 °F
Wind: 3 mph from Southeast

Location: Outlaw Field

Current Time: Feb 6, 2016 at 6:59:41 AM

Latest Report: Feb 6, 2016 at 5:52 AM


Visibility: 10 mi

Pressure: 30.37 "Hg

Humidity: 85%

Dew point: 23 °F

Location of ClarksvilleLocation

Historic Weather in Clarksville — Graph

°F

Clarksville Temperature Yesterday

Maximum temperature yesterday: 49 °F (at 2:52 PM)
Minimum temperature yesterday: 22 °F (at 4:52 AM)
Average temperature yesterday: 36 °F

High & Low Weather Summary for the Past Weeks

 TemperatureHumidityPressure
High71 °F (Jan 31, 1:52 PM)97% (Feb 2, 4:52 AM)30.48 "Hg (Feb 2, 4:52 AM)
Low10 °F (Jan 24, 4:52 AM)29% (Feb 5, 2:52 PM)29.58 "Hg (Feb 2, 7:52 PM)
Average40 °F70%30.05 "Hg
* Reported Jan 22 5:02 AM — Feb 6 5:52 AM, Clarksville, Weather by CustomWeather, © 2016

Note: Actual official high and low records may vary slightly from our data, if they occured in-between our weather recording intervals... More about our weather records

Advertising

Clarksville Weather History for the Previous 24 Hours

 ConditionsComfort  
Time TempWeatherWind HumidityBarometerVisibility
5:52 AM
Sat, Feb 6
27 °FSunny.3 mph85%30.37 "Hg10 mi
4:52 AM27 °FClear.No wind89%30.37 "Hg10 mi
3:52 AM28 °FClear.No wind81%30.36 "Hg10 mi
2:52 AM27 °FClear.No wind89%30.37 "Hg10 mi
1:52 AM29 °FClear.3 mph82%30.37 "Hg10 mi
12:52 AM31 °FClear.No wind79%30.37 "Hg10 mi
11:52 PM
Fri, Feb 5
32 °FClear.No wind75%30.37 "Hg10 mi
10:52 PM34 °FClear.No wind67%30.38 "Hg10 mi
9:52 PM37 °FClear.No wind57%30.37 "Hg10 mi
8:52 PM37 °FClear.No wind57%30.37 "Hg10 mi
7:52 PM40 °FClear.3 mph47%30.38 "Hg10 mi
6:52 PM42 °FClear.No wind41%30.40 "Hg10 mi
5:52 PM44 °FClear.No wind35%30.40 "Hg10 mi
4:52 PM46 °FClear.5 mph34%30.39 "Hg10 mi
3:52 PM48 °FSunny.9 mph29%30.39 "Hg10 mi
2:52 PM49 °FSunny.9 mph29%30.39 "Hg10 mi
1:52 PM48 °FSunny.8 mph32%30.40 "Hg10 mi
12:52 PM48 °FSunny.7 mph33%30.42 "Hg10 mi
11:52 AM45 °FSunny.6 mph40%30.44 "Hg10 mi
10:52 AM42 °FSunny.7 mph47%30.47 "Hg10 mi
9:52 AM38 °FSunny.6 mph58%30.48 "Hg10 mi
8:52 AM32 °FSunny.5 mph75%30.47 "Hg10 mi
7:52 AM26 °FSunny.No wind92%30.48 "Hg10 mi
6:52 AM22 °FIce fog.3 mph92%30.46 "Hg6 mi
Weather by CustomWeather, © 2016

See weather overviewHow to use our weather pages